FW6725 Weather Reports


Display with metric or nautical units.
time (UTC)temp
F
wind
direction
speed
MPH
gust
MPH
rain 1hr
in
rain 24hr
in
rain mn
in
humidity
%
barometer
mb
20260503222025 50 317 4.0 7.0 0.00 0.00 0.00 49 1006.8
20260503221023 50 322 4.0 7.0 0.00 0.00 0.00 50 1006.8
20260503220022 51 312 4.0 7.0 0.00 0.00 0.00 50 1006.9
20260503215021 51 309 4.0 8.0 0.00 0.00 0.00 52 1007.0
20260503214020 51 306 4.0 8.0 0.00 0.00 0.00 52 1006.9
20260503213019 51 315 5.0 9.0 0.00 0.00 0.00 51 1007.0
20260503212018 51 328 5.0 9.0 0.00 0.00 0.00 52 1007.0
20260503211016 52 331 5.0 10.0 0.00 0.00 0.00 52 1006.9
20260503210045 52 329 4.0 9.0 0.00 0.00 0.00 57 1006.9
20260503205046 52 321 5.0 9.0 0.00 0.00 0.00 59 1006.9
20260503204105 52 317 3.0 6.0 0.00 0.00 0.00 64 1006.9
20260503203044 52 316 3.0 6.0 0.00 0.00 0.00 65 1006.9
20260503202043 52 313 3.0 6.0 0.00 0.00 0.00 66 1006.9
20260503201042 53 301 3.0 5.0 0.00 0.00 0.00 65 1007.0
20260503200101 53 284 3.0 5.0 0.00 0.00 0.00 65 1007.0
20260503195039 53 276 2.0 5.0 0.00 0.00 0.00 62 1007.0
20260503194038 54 266 3.0 5.0 0.00 0.00 0.00 61 1007.0
20260503193037 54 236 4.0 5.0 0.00 0.00 0.00 60 1007.0
20260503192036 54 239 4.0 5.0 0.00 0.00 0.00 61 1007.1
20260503191035 54 250 3.0 4.0 0.00 0.00 0.00 60 1007.1
20260503190034 54 252 3.0 4.0 0.00 0.00 0.00 61 1007.0
20260503185033 54 266 2.0 4.0 0.00 0.00 0.00 60 1007.0
20260503184052 54 269 2.0 3.0 0.00 0.00 0.00 60 1007.0
20260503183031 54 265 2.0 4.0 0.00 0.00 0.00 61 1007.0
20260503182030 54 264 2.0 4.0 0.00 0.00 0.00 61 1007.0
20260503181031 54 254 2.0 3.0 0.00 0.00 0.00 60 1007.0
20260503180029 55 268 1.0 3.0 0.00 0.00 0.00 61 1007.0
20260503175027 55 289 1.0 3.0 0.00 0.00 0.00 60 1006.9
20260503174026 55 288 2.0 3.0 0.00 0.00 0.00 60 1006.9
20260503173026 55 297 2.0 4.0 0.00 0.00 0.00 59 1006.8
20260503172025 55 320 2.0 6.0 0.00 0.00 0.00 59 1006.9
20260503171023 55 305 4.0 9.0 0.00 0.00 0.00 58 1006.9
20260503131032 59 318 8.0 14.0 0.00 0.00 0.00 48 1007.2
20260503081034 51 246 5.0 7.0 0.00 0.00 0.00 69 1006.9
20260503072030 51 289 3.0 6.0 0.00 0.00 0.00 69 1006.4
20260503071029 49 290 2.0 5.0 0.00 0.00 0.00 71 1006.3
20260503055020 47 313 3.0 5.0 0.00 0.00 0.00 75 1005.6
20260503054019 47 311 4.0 8.0 0.00 0.00 0.00 75 1005.4
20260503053018 46 291 5.0 8.0 0.00 0.00 0.00 76 1005.7
20260503052017 46 293 4.0 7.0 0.00 0.00 0.00 78 1005.6
20260503051016 46 301 4.0 7.0 0.00 0.00 0.00 78 1005.6
20260503050045 46 290 4.0 7.0 0.00 0.00 0.00 78 1005.3
20260503045044 46 299 4.0 8.0 0.00 0.00 0.00 79 1005.3
20260503044103 45 292 6.0 8.0 0.00 0.00 0.00 81 1005.2
20260503043102 44 284 5.0 8.0 0.00 0.00 0.00 82 1005.1
20260503042041 44 296 5.0 11.0 0.00 0.00 0.00 84 1005.1
20260503041102 43 295 5.0 11.0 0.00 0.00 0.00 85 1004.9
20260503035040 43 293 6.0 10.0 0.00 0.00 0.00 86 1004.7
20260503034038 42 290 6.0 10.0 0.00 0.00 0.00 87 1004.7
20260503033057 42 268 7.0 9.0 0.00 0.00 0.00 88 1004.8
20260503032036 42 237 6.0 8.0 0.00 0.00 0.00 87 1004.6
20260503031035 42 239 6.0 8.0 0.00 0.00 0.00 89 1004.7
20260503030034 41 240 5.0 8.0 0.00 0.00 0.00 89 1004.7
20260503025035 41 245 5.0 8.0 0.00 0.00 0.00 90 1004.8
20260503024033 41 266 5.0 7.0 0.00 0.00 0.00 89 1004.8
20260503023032 41 256 5.0 6.0 0.00 0.00 0.00 89 1004.7
20260503022031 41 224 5.0 6.0 0.00 0.00 0.00 89 1004.6
20260503021030 41 253 4.0 7.0 0.00 0.00 0.00 89 1004.7
20260503020029 41 240 6.0 7.0 0.00 0.00 0.00 89 1004.7
20260503015028 41 244 6.0 9.0 0.00 0.00 0.00 87 1004.7
20260503014026 41 211 7.0 10.0 0.00 0.00 0.00 88 1004.6
20260503013025 41 205 5.0 9.0 0.00 0.00 0.00 88 1004.7
20260503012025 41 210 4.0 7.0 0.00 0.00 0.00 87 1004.7
20260503011024 41 211 5.0 8.0 0.00 0.00 0.00 87 1004.6
20260503010043 42 208 6.0 8.0 0.00 0.00 0.00 86 1004.8
20260503005021 41 214 5.0 8.0 0.00 0.00 0.00 87 1004.8
20260503004022 41 224 4.0 6.0 0.00 0.00 0.00 86 1004.8
20260503003041 42 171 4.0 9.0 0.00 0.00 0.00 86 1004.9
20260503002020 42 152 4.0 9.0 0.00 0.00 0.00 86 1004.7
20260503001039 42 149 4.0 8.0 0.00 0.00 0.00 85 1004.9
20260503000017 42 159 4.0 9.0 0.00 0.00 0.00 84 1005.1
20260502235016 42 166 4.0 9.0 0.00 0.00 0.00 84 1005.2
20260502234045 42 173 4.0 8.0 0.00 0.00 0.00 83 1005.4
20260502233043 43 186 3.0 7.0 0.00 0.00 0.00 82 1005.5
20260502232043 43 216 4.0 9.0 0.00 0.00 0.00 82 1005.6
20260502231041 43 173 6.0 11.0 0.00 0.00 0.00 81 1005.6
20260502230042 44 179 6.0 11.0 0.00 0.00 0.00 80 1005.6
20260502225041 44 180 6.0 11.0 0.00 0.00 0.00 79 1005.8
20260502224040 44 192 6.0 11.0 0.00 0.00 0.00 78 1005.8
20260502223040 44 185 6.0 11.0 0.00 0.00 0.00 77 1005.9